Location: La Trinit�
(48.1620°N, 3.4512°W)
Time: 09:28:50
(UTC+00:00)

Resurs 01 Rocket - Pass Details

Date: 08 May 2021
Orbit: 633 x 645 km, 97.9° (Epoch: 12 June)

Event Time Altitude Azimuth Distance (km) Brightness Sun altitude
Exits shadow 20:29:42 - 157° (SSE) 2,303 3.9 -8.2°
Reaches altitude 10° 20:30:21 10° 156° (SSE) 2,038 3.7 -8.2°
Maximum altitude 20:34:45 69° 74° (ENE) 691 1.7 -8.8°
Drops below altitude 10° 20:39:12 10° 351° (N) 2,049 5.0 -9.4°
Sets 20:41:25 0° 349° (N) 2,961 5.9 -9.7°
